Time,TemperatureF,DewpointF,PressureIn,WindDirection,WindDirectionDegrees,WindSpeedMPH,WindSpeedGustMPH,Humidity,HourlyPrecipIn,Conditions,Clouds,dailyrainin,SolarRadiationWatts/m^2,SoftwareType,DateUTC
2013-02-10 00:02:00,27.0,11.0,-100.00,West,272,15.0,27.0,51,0.00,,,0.00,41.000000,,2013-02-10 00:02:00,
2013-02-10 00:12:00,27.0,11.0,-100.00,West,272,15.0,27.0,51,0.00,,,0.00,41.000000,,2013-02-10 00:12:00,
2013-02-10 00:22:00,27.0,11.0,-100.00,West,272,15.0,27.0,51,0.00,,,0.00,41.000000,,2013-02-10 00:22:00,
2013-02-10 00:32:00,27.0,11.0,-100.00,West,272,15.0,27.0,51,0.00,,,0.00,41.000000,,2013-02-10 00:32:00,
2013-02-10 00:52:00,26.0,12.0,-100.00,WSW,240,7.0,24.0,56,0.00,,,0.00,52.000000,,2013-02-10 00:52:00,
2013-02-10 01:01:00,26.0,12.0,-100.00,WSW,240,7.0,24.0,56,0.00,,,0.00,52.000000,,2013-02-10 01:01:00,
2013-02-10 01:12:00,26.0,12.0,-100.00,WSW,240,7.0,24.0,56,0.00,,,0.00,52.000000,,2013-02-10 01:12:00,
2013-02-10 01:21:00,26.0,12.0,-100.00,WSW,240,7.0,24.0,56,0.00,,,0.00,52.000000,,2013-02-10 01:21:00,
2013-02-10 01:32:00,26.0,12.0,-100.00,WSW,240,7.0,24.0,56,0.00,,,0.00,52.000000,,2013-02-10 01:32:00,
2013-02-10 01:52:00,24.0,13.0,-100.00,West,262,11.0,24.0,63,0.00,,,0.00,0.000000,,2013-02-10 01:52:00,
2013-02-10 02:01:00,24.0,13.0,-100.00,West,262,11.0,24.0,63,0.00,,,0.00,0.000000,,2013-02-10 02:01:00,
2013-02-10 02:11:00,24.0,13.0,-100.00,West,262,11.0,24.0,63,0.00,,,0.00,0.000000,,2013-02-10 02:11:00,
2013-02-10 02:22:00,24.0,13.0,-100.00,West,262,11.0,24.0,63,0.00,,,0.00,0.000000,,2013-02-10 02:22:00,
2013-02-10 02:32:00,24.0,13.0,-100.00,West,262,11.0,24.0,63,0.00,,,0.00,0.000000,,2013-02-10 02:32:00,
2013-02-10 02:52:00,23.0,19.0,-100.00,SW,224,12.0,20.0,83,0.00,,,0.00,0.000000,,2013-02-10 02:52:00,
2013-02-10 03:02:00,23.0,19.0,-100.00,SW,224,12.0,20.0,83,0.00,,,0.00,0.000000,,2013-02-10 03:02:00,
2013-02-10 03:11:00,23.0,19.0,-100.00,SW,224,12.0,20.0,83,0.00,,,0.00,0.000000,,2013-02-10 03:11:00,
2013-02-10 03:21:00,23.0,19.0,-100.00,SW,224,12.0,20.0,83,0.00,,,0.00,0.000000,,2013-02-10 03:21:00,
2013-02-10 03:32:00,23.0,19.0,-100.00,SW,224,12.0,20.0,83,0.00,,,0.00,0.000000,,2013-02-10 03:32:00,
2013-02-10 03:52:00,22.0,19.0,-100.00,WSW,248,5.0,21.0,87,0.00,,,0.00,0.000000,,2013-02-10 03:52:00,
2013-02-10 04:01:00,22.0,19.0,-100.00,WSW,248,5.0,21.0,87,0.00,,,0.00,0.000000,,2013-02-10 04:01:00,
2013-02-10 04:11:00,22.0,19.0,-100.00,WSW,248,5.0,21.0,87,0.00,,,0.00,0.000000,,2013-02-10 04:11:00,
2013-02-10 04:21:00,22.0,19.0,-100.00,WSW,248,5.0,21.0,87,0.00,,,0.00,0.000000,,2013-02-10 04:21:00,
2013-02-10 04:32:00,22.0,19.0,-100.00,WSW,248,5.0,21.0,87,0.00,,,0.00,0.000000,,2013-02-10 04:32:00,
2013-02-10 04:52:00,23.0,18.0,-100.00,SW,224,9.0,16.0,81,0.00,,,0.00,0.000000,,2013-02-10 04:52:00,
2013-02-10 05:01:00,23.0,18.0,-100.00,SW,224,9.0,16.0,81,0.00,,,0.00,0.000000,,2013-02-10 05:01:00,
2013-02-10 05:11:00,23.0,18.0,-100.00,SW,224,9.0,16.0,81,0.00,,,0.00,0.000000,,2013-02-10 05:11:00,
2013-02-10 05:22:00,23.0,18.0,-100.00,SW,224,9.0,16.0,81,0.00,,,0.00,0.000000,,2013-02-10 05:22:00,
2013-02-10 05:31:00,23.0,18.0,-100.00,SW,224,9.0,16.0,81,0.00,,,0.00,0.000000,,2013-02-10 05:31:00,
2013-02-10 05:52:00,24.0,16.0,-100.00,SW,225,10.0,19.0,71,0.00,,,0.00,0.000000,,2013-02-10 05:52:00,
2013-02-10 06:01:00,24.0,16.0,-100.00,SW,225,10.0,19.0,71,0.00,,,0.00,0.000000,,2013-02-10 06:01:00,
2013-02-10 06:11:00,24.0,16.0,-100.00,SW,225,10.0,19.0,71,0.00,,,0.00,0.000000,,2013-02-10 06:11:00,
2013-02-10 06:21:00,24.0,16.0,-100.00,SW,225,10.0,19.0,71,0.00,,,0.00,0.000000,,2013-02-10 06:21:00,
2013-02-10 06:32:00,24.0,16.0,-100.00,SW,225,10.0,19.0,71,0.00,,,0.00,0.000000,,2013-02-10 06:32:00,
2013-02-10 06:52:00,24.0,17.0,-100.00,WSW,239,8.0,21.0,74,0.00,,,0.00,0.000000,,2013-02-10 06:52:00,
2013-02-10 07:01:00,24.0,17.0,-100.00,WSW,239,8.0,21.0,74,0.00,,,0.00,0.000000,,2013-02-10 07:01:00,
2013-02-10 07:11:00,24.0,17.0,-100.00,WSW,239,8.0,21.0,74,0.00,,,0.00,0.000000,,2013-02-10 07:11:00,
2013-02-10 07:21:00,24.0,17.0,-100.00,WSW,239,8.0,21.0,74,0.00,,,0.00,0.000000,,2013-02-10 07:21:00,
2013-02-10 07:31:00,24.0,17.0,-100.00,WSW,239,8.0,21.0,74,0.00,,,0.00,0.000000,,2013-02-10 07:31:00,
2013-02-10 07:52:00,24.0,18.0,-100.00,SW,229,11.0,21.0,76,0.00,,,0.00,0.000000,,2013-02-10 07:52:00,
2013-02-10 08:01:00,24.0,18.0,-100.00,SW,229,11.0,21.0,76,0.00,,,0.00,0.000000,,2013-02-10 08:01:00,
2013-02-10 08:11:00,24.0,18.0,-100.00,SW,229,11.0,21.0,76,0.00,,,0.00,0.000000,,2013-02-10 08:11:00,
2013-02-10 08:21:00,24.0,18.0,-100.00,SW,229,11.0,21.0,76,0.00,,,0.00,0.000000,,2013-02-10 08:21:00,
2013-02-10 08:32:00,24.0,18.0,-100.00,SW,229,11.0,21.0,76,0.00,,,0.00,0.000000,,2013-02-10 08:32:00,
2013-02-10 08:52:00,23.0,15.0,-100.00,SW,231,12.0,25.0,72,0.00,,,0.00,0.000000,,2013-02-10 08:52:00,
2013-02-10 09:02:00,23.0,15.0,-100.00,SW,231,12.0,25.0,72,0.00,,,0.00,0.000000,,2013-02-10 09:02:00,
2013-02-10 09:11:00,23.0,15.0,-100.00,SW,231,12.0,25.0,72,0.00,,,0.00,0.000000,,2013-02-10 09:11:00,
2013-02-10 09:21:00,23.0,15.0,-100.00,SW,231,12.0,25.0,72,0.00,,,0.00,0.000000,,2013-02-10 09:21:00,
2013-02-10 09:31:00,23.0,15.0,-100.00,SW,231,12.0,25.0,72,0.00,,,0.00,0.000000,,2013-02-10 09:31:00,
2013-02-10 09:52:00,24.0,14.0,-100.00,SW,225,9.0,21.0,65,0.00,,,0.00,0.000000,,2013-02-10 09:52:00,
2013-02-10 10:01:00,24.0,14.0,-100.00,SW,225,9.0,21.0,65,0.00,,,0.00,0.000000,,2013-02-10 10:01:00,
2013-02-10 10:11:00,24.0,14.0,-100.00,SW,225,9.0,21.0,65,0.00,,,0.00,0.000000,,2013-02-10 10:11:00,
2013-02-10 10:21:00,24.0,14.0,-100.00,SW,225,9.0,21.0,65,0.00,,,0.00,0.000000,,2013-02-10 10:21:00,
2013-02-10 10:31:00,24.0,14.0,-100.00,SW,225,9.0,21.0,65,0.00,,,0.00,0.000000,,2013-02-10 10:31:00,
2013-02-10 10:52:00,23.0,13.0,-100.00,SW,229,11.0,20.0,64,0.00,,,0.00,0.000000,,2013-02-10 10:52:00,
2013-02-10 11:01:00,23.0,13.0,-100.00,SW,229,11.0,20.0,64,0.00,,,0.00,0.000000,,2013-02-10 11:01:00,
2013-02-10 11:11:00,23.0,13.0,-100.00,SW,229,11.0,20.0,64,0.00,,,0.00,0.000000,,2013-02-10 11:11:00,
2013-02-10 11:22:00,23.0,13.0,-100.00,SW,229,11.0,20.0,64,0.00,,,0.00,0.000000,,2013-02-10 11:22:00,
2013-02-10 11:32:00,23.0,13.0,-100.00,SW,229,11.0,20.0,64,0.00,,,0.00,0.000000,,2013-02-10 11:32:00,
2013-02-10 11:52:00,23.0,14.0,-100.00,SW,229,10.0,18.0,67,0.00,,,0.00,0.000000,,2013-02-10 11:52:00,
2013-02-10 12:02:00,23.0,14.0,-100.00,SW,229,10.0,18.0,67,0.00,,,0.00,0.000000,,2013-02-10 12:02:00,
2013-02-10 12:12:00,23.0,14.0,-100.00,SW,229,10.0,18.0,67,0.00,,,0.00,0.000000,,2013-02-10 12:12:00,
2013-02-10 12:21:00,23.0,14.0,-100.00,SW,229,10.0,18.0,67,0.00,,,0.00,0.000000,,2013-02-10 12:21:00,
2013-02-10 12:32:00,23.0,14.0,-100.00,SW,229,10.0,18.0,67,0.00,,,0.00,0.000000,,2013-02-10 12:32:00,
2013-02-10 14:52:00,22.0,14.0,-100.00,WSW,240,4.0,12.0,71,-99.99,,,0.00,3.000000,,2013-02-10 14:52:00,
2013-02-10 15:02:00,22.0,14.0,-100.00,WSW,240,4.0,12.0,71,-99.99,,,0.00,3.000000,,2013-02-10 15:02:00,
2013-02-10 15:11:00,22.0,14.0,-100.00,WSW,240,4.0,12.0,71,-99.99,,,0.00,3.000000,,2013-02-10 15:11:00,
2013-02-10 15:22:00,22.0,14.0,-100.00,WSW,240,4.0,12.0,71,-99.99,,,0.00,3.000000,,2013-02-10 15:22:00,
2013-02-10 15:32:00,22.0,14.0,-100.00,WSW,240,4.0,12.0,71,-99.99,,,0.00,3.000000,,2013-02-10 15:32:00,
2013-02-10 15:52:00,23.0,14.0,-100.00,West,265,4.0,8.0,69,0.00,,,0.00,31.000000,,2013-02-10 15:52:00,
2013-02-10 16:02:00,23.0,14.0,-100.00,West,265,4.0,8.0,69,0.00,,,0.00,31.000000,,2013-02-10 16:02:00,
2013-02-10 16:11:00,23.0,14.0,-100.00,West,265,4.0,8.0,69,0.00,,,0.00,31.000000,,2013-02-10 16:11:00,
2013-02-10 16:22:00,23.0,14.0,-100.00,West,265,4.0,8.0,69,0.00,,,0.00,31.000000,,2013-02-10 16:22:00,
2013-02-10 16:32:00,23.0,14.0,-100.00,West,265,4.0,8.0,69,0.00,,,0.00,31.000000,,2013-02-10 16:32:00,
2013-02-10 16:52:00,24.0,13.0,-100.00,WSW,238,6.0,15.0,63,0.00,,,0.00,101.000000,,2013-02-10 16:52:00,
2013-02-10 17:02:00,24.0,13.0,-100.00,WSW,238,6.0,15.0,63,0.00,,,0.00,101.000000,,2013-02-10 17:02:00,
2013-02-10 17:11:00,24.0,13.0,-100.00,WSW,238,6.0,15.0,63,0.00,,,0.00,101.000000,,2013-02-10 17:11:00,
2013-02-10 17:22:00,24.0,13.0,-100.00,WSW,238,6.0,15.0,63,0.00,,,0.00,101.000000,,2013-02-10 17:22:00,
2013-02-10 17:32:00,24.0,13.0,-100.00,WSW,238,6.0,15.0,63,0.00,,,0.00,101.000000,,2013-02-10 17:32:00,
2013-02-10 17:52:00,26.0,13.0,-100.00,SW,234,8.0,15.0,57,0.00,,,0.00,121.000000,,2013-02-10 17:52:00,
2013-02-10 18:02:00,26.0,13.0,-100.00,SW,234,8.0,15.0,57,0.00,,,0.00,121.000000,,2013-02-10 18:02:00,
2013-02-10 18:12:00,26.0,13.0,-100.00,SW,234,8.0,15.0,57,0.00,,,0.00,121.000000,,2013-02-10 18:12:00,
2013-02-10 18:22:00,26.0,13.0,-100.00,SW,234,8.0,15.0,57,0.00,,,0.00,121.000000,,2013-02-10 18:22:00,
2013-02-10 18:32:00,26.0,13.0,-100.00,SW,234,8.0,15.0,57,0.00,,,0.00,121.000000,,2013-02-10 18:32:00,
2013-02-10 18:52:00,28.0,15.0,-100.00,SW,226,7.0,18.0,58,0.00,,,0.00,435.000000,,2013-02-10 18:52:00,
2013-02-10 19:02:00,28.0,15.0,-100.00,SW,226,7.0,18.0,58,0.00,,,0.00,435.000000,,2013-02-10 19:02:00,
2013-02-10 19:12:00,28.0,15.0,-100.00,SW,226,7.0,18.0,58,0.00,,,0.00,435.000000,,2013-02-10 19:12:00,
2013-02-10 19:22:00,28.0,15.0,-100.00,SW,226,7.0,18.0,58,0.00,,,0.00,435.000000,,2013-02-10 19:22:00,
2013-02-10 19:32:00,28.0,15.0,-100.00,SW,226,7.0,18.0,58,0.00,,,0.00,435.000000,,2013-02-10 19:32:00,
2013-02-10 19:52:00,27.0,17.0,-100.00,SW,236,7.0,14.0,65,0.00,,,0.00,282.000000,,2013-02-10 19:52:00,
2013-02-10 20:02:00,27.0,17.0,-100.00,SW,236,7.0,14.0,65,0.00,,,0.00,282.000000,,2013-02-10 20:02:00,
2013-02-10 20:11:00,27.0,17.0,-100.00,SW,236,7.0,14.0,65,0.00,,,0.00,282.000000,,2013-02-10 20:11:00,
2013-02-10 20:22:00,27.0,17.0,-100.00,SW,236,7.0,14.0,65,0.00,,,0.00,282.000000,,2013-02-10 20:22:00,
2013-02-10 20:32:00,27.0,17.0,-100.00,SW,236,7.0,14.0,65,0.00,,,0.00,282.000000,,2013-02-10 20:32:00,
2013-02-10 20:52:00,33.0,19.0,-100.00,North,358,4.0,9.0,57,0.00,,,0.00,506.000000,,2013-02-10 20:52:00,
2013-02-10 21:02:00,33.0,19.0,-100.00,North,358,4.0,9.0,57,0.00,,,0.00,506.000000,,2013-02-10 21:02:00,
2013-02-10 21:11:00,33.0,19.0,-100.00,North,358,4.0,9.0,57,0.00,,,0.00,506.000000,,2013-02-10 21:11:00,
2013-02-10 21:22:00,33.0,19.0,-100.00,North,358,4.0,9.0,57,0.00,,,0.00,506.000000,,2013-02-10 21:22:00,
2013-02-10 21:32:00,33.0,19.0,-100.00,North,358,4.0,9.0,57,0.00,,,0.00,506.000000,,2013-02-10 21:32:00,
2013-02-10 21:52:00,32.0,10.0,-100.00,SW,233,7.0,17.0,40,0.00,,,0.00,547.000000,,2013-02-10 21:52:00,
2013-02-10 22:02:00,32.0,10.0,-100.00,SW,233,7.0,17.0,40,0.00,,,0.00,547.000000,,2013-02-10 22:02:00,
2013-02-10 22:11:00,32.0,10.0,-100.00,SW,233,7.0,17.0,40,0.00,,,0.00,547.000000,,2013-02-10 22:11:00,
2013-02-10 22:22:00,32.0,10.0,-100.00,SW,233,7.0,17.0,40,0.00,,,0.00,547.000000,,2013-02-10 22:22:00,
2013-02-10 22:32:00,32.0,10.0,-100.00,SW,233,7.0,17.0,40,0.00,,,0.00,547.000000,,2013-02-10 22:32:00,
2013-02-10 22:53:00,32.0,14.0,-100.00,WNW,298,7.0,14.0,47,0.00,,,0.00,238.000000,,2013-02-10 22:53:00,
2013-02-10 23:02:00,32.0,14.0,-100.00,WNW,298,7.0,14.0,47,0.00,,,0.00,238.000000,,2013-02-10 23:02:00,
2013-02-10 23:11:00,32.0,14.0,-100.00,WNW,298,7.0,14.0,47,0.00,,,0.00,238.000000,,2013-02-10 23:11:00,
2013-02-10 23:22:00,32.0,14.0,-100.00,WNW,298,7.0,14.0,47,0.00,,,0.00,238.000000,,2013-02-10 23:22:00,
2013-02-10 23:32:00,32.0,14.0,-100.00,WNW,298,7.0,14.0,47,0.00,,,0.00,238.000000,,2013-02-10 23:32:00,
2013-02-10 23:52:00,34.0,11.0,-100.00,West,273,7.0,11.0,37,0.00,,,0.00,242.000000,,2013-02-10 23:52:00,